Location: Unspecified
(64.9000°N, 0.0000°E)
Time: 05:03:56
(UTC+00:00)

A-11 Canister half - Pass Details

Date: 19 June 2019
Orbit: 1526 x 1683 km, 47.3° (Epoch: 16 August)

Event Time Altitude Azimuth Distance (km) Brightness Sun altitude
Rises 05:56:45 0° 211° (SSW) 4,705 11.2 20.6°
Reaches altitude 10° 06:00:49 10° 196° (SSW) 3,708 10.8 21.0°
Maximum altitude 06:07:00 20° 154° (SSE) 2,964 10.9 21.7°
Drops below altitude 10° 06:13:11 10° 111° (ESE) 3,698 12.2 22.3°
Sets 06:17:13 0° 96° (E) 4,689 12.9 22.8°
